Tracking 25405 objects as of 27-Jan-2022
HD Live streaming from Space Station
objects crossing your sky now

STARLINK-2590

Track STARLINK-2590 now!
10-day predictions
STARLINK-2590 is classified as:


NORAD ID: 48397
Int'l Code: 2021-038AW
Perigee: 553.0 km
Apogee: 555.6 km
Inclination: 53.1 °
Period: 95.6 minutes
Semi major axis: 6925 km
RCS: Unknown
Launch date: May 4, 2021
Source: United States (US)
Launch site: AIR FORCE EASTERN TEST RANGE (AFETR)
aabbcc
Your satellite tracking list
Your tracking list is empty




NASA's NSSDC Master Catalog

Two Line Element Set (TLE):
1 48397U 21038AW  22026.79868039  .00000080  00000-0  24284-4 0  9999
2 48397  53.0538 248.3651 0001884  68.9330 291.1861 15.06403692 41364
Source of the keplerian elements: AFSPC